Location: Unspecified
(42.9300°N, 71.1866°W)
Time: 05:50:22
(UTC-04:00)

Cosmos 2058 - Visible Passes

Search period start: 21 April 2015 00:00
Search period end: 01 May 2015 00:00
Orbit: 566 x 590 km, 82.5° (Epoch: 21 April)

Date Brightness Start Highest point End Pass type
(mag) Time Alt. Az. Time Alt. Az. Time Alt. Az.
26 Apr 6.0 04:17:10 10° ESE 04:18:36 12° E 04:20:15 10° ENE visible
27 Apr 5.8 04:20:32 10° SE 04:23:01 16° E 04:25:40 10° NE visible
28 Apr 5.4 04:24:20 10° SE 04:27:28 22° E 04:30:41 10° NE visible
29 Apr 4.9 04:28:21 10° SSE 04:31:55 29° E 04:35:32 10° NNE visible
30 Apr 4.2 04:32:31 10° SSE 04:36:21 40° E 04:40:15 10° NNE visible
